Home > Weather > Paradise > Past weeks

Flag for Canada Past Weather in Paradise, Newfoundland and Labrador, Canada — Yesterday and Last 2 Weeks

Now
73 °F

Mostly cloudy.


Feels Like: 74 °F
Forecast: 54 / 68 °F
Wind: 24 mph from Southwest

Location: St. John's

Current Time: Jun 27, 2016 at 4:15:01 PM

Latest Report: Jun 27, 2016 at 3:30 PM


Visibility: 15 mi

Pressure: 30.17 "Hg

Humidity: 78%

Dew Point: 66 °F

Location of ParadiseLocation

Past Weather in Paradise — Graph

°F

Paradise Temperature Yesterday

Maximum temperature yesterday: 73 °F (at 1:30 PM)
Minimum temperature yesterday: 54 °F (at 2:30 AM)
Average temperature yesterday: 63 °F

High & Low Weather Summary for the Past Weeks

 TemperatureHumidityPressure
High75 °F (Jun 20, 12:30 PM)100% (Jun 13, 6:30 AM)30.34 "Hg (Jun 13, 6:30 AM)
Low37 °F (Jun 18, 10:30 PM)31% (Jun 26, 11:30 AM)29.49 "Hg (Jun 17, 1:30 AM)
Average56 °F81%29.93 "Hg
* Reported Jun 12 2:30 PM — Jun 27 2:30 PM, Paradise, Weather by CustomWeather, © 2016

Note: Actual official high and low records may vary slightly from our data, if they occured in-between our weather recording intervals... More about our weather records

Advertising

Paradise Weather History for the Previous 24 Hours

Scroll right to see more
 ConditionsComfort  
Time TempWeatherWind HumidityBarometerVisibility
2:30 PM
Mon, Jun 27
75 °FPartly sunny.21 mph74%30.19 "Hg15 mi
1:30 PM75 °FPartly sunny.20 mph74%30.21 "Hg15 mi
12:30 PM72 °FBroken clouds.18 mph83%30.22 "Hg15 mi
11:30 AM70 °FSprinkles. Overcast.17 mph88%30.24 "Hg15 mi
10:30 AM68 °FSprinkles. Low clouds.17 mph94%30.25 "Hg15 mi
9:30 AM70 °FMostly cloudy.15 mph88%30.26 "Hg12 mi
8:30 AM68 °FScattered clouds.15 mph88%30.26 "Hg15 mi
7:30 AM66 °FScattered clouds.13 mph94%30.25 "Hg15 mi
6:30 AM64 °FBroken clouds.10 mph94%30.25 "Hg15 mi
5:30 AM63 °FSprinkles. Overcast.13 mph94%30.26 "Hg15 mi
4:30 AM61 °FSprinkles. Partly cloudy.9 mph94%30.26 "Hg10 mi
3:30 AM61 °FPassing clouds.12 mph72%30.28 "Hg15 mi
2:30 AM61 °FOvercast.10 mph63%30.30 "Hg15 mi
1:30 AM59 °FPassing clouds.6 mph72%30.31 "Hg15 mi
12:30 AM55 °FPassing clouds.9 mph82%30.32 "Hg15 mi
11:30 PM
Sun, Jun 26
57 °FPassing clouds.7 mph72%30.33 "Hg15 mi
10:30 PM59 °FPassing clouds.14 mph72%30.33 "Hg15 mi
9:30 PM61 °FPartly sunny.16 mph68%30.34 "Hg15 mi
8:30 PM64 °FPartly sunny.16 mph64%30.33 "Hg15 mi
7:30 PM66 °FPartly sunny.14 mph64%30.33 "Hg15 mi
6:30 PM68 °FPartly sunny.21 mph53%30.32 "Hg15 mi
5:30 PM72 °FPartly sunny.17 mph36%30.31 "Hg15 mi
4:30 PM73 °FPartly sunny.17 mph36%30.30 "Hg15 mi
Weather by CustomWeather, © 2016

See weather overviewHow to use our weather pages